User: anonymous   Login
Location: Charleston
(38.3500°N, 81.6330°W)
Time: 15:16:41
(UTC-04:00)
Language:

Cosmos 2228 - Orbit

View from above orbital plane
View from above orbital plane
View from above satellite
View from above satellite

Ground track
Ground track

The orbit data is extracted from the following two-line orbital elements,

1 22286U 92094A   17263.62529445  .00000222  00000-0  21516-4 0  9995
2 22286  82.5187 284.1162 0021101 160.7657 199.4362 14.87705962336683
Epoch (UTC): 20 September 2017 15:00:25
Eccentricity: 0.0021101
inclination: 82.5187°
perigee height: 590 km
apogee height: 620 km
right ascension of ascending node: 284.1162°
argument of perigee: 160.7657°
revolutions per day: 14.87705962
mean anomaly at epoch: 199.4362°
orbit number at epoch: 33668

The dashed part of the orbit path shows where the satellite is in the earth's shadow,  

DLR